Regional Weather Roundup
Issued by NWS Goodland, KS

Home | Current Version | Previous Version | Graphics & Text | Print | Product List | Glossary On
Versions: 1 2 3 4 5 6 7 8 9 10 11 12 13 14 15 16 17 18 19 20 21 22 23 24 25 26 27 28 29 30 31 32 33 34 35 36 37 38 39 40 41 42 43 44 45 46 47 48 49 50
632
ASUS43 KGLD 040359
RWRGLD

GOODLAND FORECAST AREA HOURLY WEATHER ROUNDUP
NATIONAL WEATHER SERVICE GOODLAND KS
1000 PM MDT TUE MAY 03 2016

...OFFICIAL OBSERVATIONS...

CITY           SKY/WX    TMP DP  RH WIND       PRES   REMARKS
GOODLAND KS    CLEAR     46  37  71 W8        30.13R
HILL CITY KS   CLEAR     51  43  74 W7        30.06R
IMPERIAL NEB   CLEAR     52  38  58 NW6       30.11R
MCCOOK NEB     CLEAR     49  40  71 W9        30.06R
AKRON CO       CLEAR     51  29  42 CALM      30.19R
BURLINGTON CO  CLEAR     44  36  73 W7        30.17R
LIMON CO       CLEAR     41  37  86 N3        30.24R
$$

...UNOFFICIAL OBSERVATIONS...

CITY           SKY/WX    TMP DP  RH WIND       PRES   REMARKS
COLBY KS       CLEAR     45  43  93 W7        30.11R
NORTON KS      CLEAR     54  41  62 SW7       30.04R
SHARON SPRINGS   N/A     47  37  69 CALM        N/A
KIT CARSON CO    N/A     46  37  72 MISG        N/A
YUMA CO          N/A     48  37  66 CALM        N/A
$$




USA.gov is the U.S. government's official web portal to all federal, state and local government web resources and services.